Regional Weather Roundup
Issued by NWS

Home | Current Version | Previous Version | Text Only | Print | Product List | Glossary Off
Versions: 1 2 3 4 5 6 7 8 9 10 11 12 13 14 15 16 17 18 19 20 21 22 23 24 25 26 27 28 29 30 31 32 33 34 35 36 37 38 39 40 41 42 43 44 45 46 47 48 49 50

000
ASUS43 KLOT 250509
RWRIL

ILLINOIS REGIONAL WEATHER ROUNDUP
NATIONAL WEATHER SERVICE CHICAGO/ROMEOVILLE IL
1200 AM CDT THU MAY 25 2017

NOTE: "FAIR" INDICATES FEW OR NO CLOUDS BELOW 12,000 FEET WITH NO
SIGNIFICANT WEATHER AND/OR OBSTRUCTIONS TO VISIBILITY.

* THESE STATIONS ARE NOT UNDER NWS QUALITY CONTROL. THEY ALSO MAY NOT
  REPORT WEATHER SUCH AS PRECIPITATION OR FOG.

ILZ001-002-007-009-015-016-024-250600-
NORTHWEST ILLINOIS

CITY           SKY/WX    TMP DP  RH WIND       PRES   REMARKS
MOLINE         CLOUDY    58  50  75 NW9       29.64S
STERLING*      CLOUDY    56  52  86 N10       29.63S
SAVANNA*       CLOUDY    55  50  84 N8        29.65S
$$

ILZ003-004-008-010-011-017-018-250600-
NORTH CENTRAL ILLINOIS

CITY           SKY/WX    TMP DP  RH WIND       PRES   REMARKS
ROCKFORD       PTCLDY    54  50  86 N12       29.63R
FREEPORT*      CLOUDY    53  50  90 N9        29.65S
ROCHELLE*      PTCLDY    52  51  95 N9        29.61S
DE KALB*       CLOUDY    54  52  94 N14       29.59S
PERU*          MOCLDY    54  51  89 NW14      29.59F
$$

ILZ005-006-012>014-019>023-250600-
NORTHEAST ILLINOIS

CITY           SKY/WX    TMP DP  RH WIND       PRES   REMARKS
CHICAGO-OHARE  CLOUDY    54  49  83 N12       29.56S
CHICAGO-MIDWAY CLOUDY    53  50  89 N10       29.55S
AURORA         CLOUDY    57  51  80 N12       29.58R
LANSING*       CLOUDY    51  51 100 N6        29.54F
JOLIET*        CLOUDY    57  54  89 CALM      29.56S
WAUKEGAN       CLOUDY    53  50  89 N8        29.57S
DUPAGE AIRPORT CLOUDY    54  52  93 N10       29.56S
KANKAKEE*      CLOUDY    53  51  95 CALM      29.54S
WHEELING       CLOUDY    53  51  93 N8        29.58S
MORRIS*        PTCLDY    55  51  85 CALM      29.55S
ROMEOVILLE*    CLOUDY    55  53  94 N9        29.56S
NORTHERLY ISL    N/A     52  49  89 N13         N/A
$$

LMZ740>746-250600-
SOUTHERN LAKE MICHIGAN

STATION/POSITION SKY/WX   TEMP    WIND        PRES    VSBY  WAVE
                          AIR SEA DIR/SP/G                  HT/PER
                          (F)     (DEG/KT/KT) (MB)    (MI)  (FT/S)
SOUTHERN BUOY              46 45  350/ 14/ 17 1000.7          4/ 6
WILMETTE HARBOR            49 53                N/A           6/ 6
HARRISON CRIB              50     340/ 24/ 26   N/A
BURNHAM HARBOR             53     330/ 11/ 18   N/A
CALUMET HARBOR             50     320/ 10/ 19 1000.2F
BURNS HARBOR               49     340/ 16/ 23 1000.3S
MICHIGAN CITY              51     330/ 19/ 21   N/A
MICHIGAN CITY 6N           50 53  340/ 17/ 21   N/A           5/ 6
ST. JOSEPH                 55 57   20/ 16/ 19  999.5          4/ 5
$$

ILZ025>027-034>036-040-047-049-050-058-095>099-250600-
WEST-CENTRAL ILLINOIS

CITY           SKY/WX    TMP DP  RH WIND       PRES   REMARKS
QUINCY         CLOUDY    55  52  89 NW8       29.64S
GALESBURG*     MOCLDY    54  51  90 NW6       29.63S
MACOMB*        CLEAR     53  51  93 NW8       29.66R
JACKSONVILLE*  CLEAR     55  53  92 NW6       29.62R
PITTSFIELD*    CLEAR     55  53  94 NW6       29.64F
$$

ILZ028>032-037-038-041>044-048-051>054-059>061-250600-
CENTRAL ILLINOIS

CITY           SKY/WX    TMP DP  RH WIND       PRES   REMARKS
PONTIAC        MOCLDY    56  56  98 N13       29.57R
BLOOMINGTON    CLOUDY    56  53  90 N17G25    29.56S
DECATUR        CLOUDY    58  54  86 NW10      29.55S
PEORIA         PTCLDY    55  53  93 NW7       29.60S
LACON*         MOCLDY    56  53  89 N8        29.58F
LINCOLN*       MOCLDY    58  55  91 NW6       29.57F
SPRINGFIELD    PTCLDY    58  54  86 NW9       29.59S
TAYLORVILLE    CLOUDY    57  54  89 NW12      29.57F
$$

ILZ033-039-045-046-055>057-062-063-250600-
EAST-CENTRAL ILLINOIS

CITY           SKY/WX    TMP DP  RH WIND       PRES   REMARKS
CHAMPAIGN      CLOUDY    58  53  84 N17       29.53R
RANTOUL*       CLOUDY    58  56  92 N10G17    29.52F
MATTOON        CLOUDY    58  57  97 NW14      29.52S
PARIS*         CLOUDY    56  55  97 NW12      29.52R
$$

ILZ079-100>102-250600-
SOUTHWEST ILLINOIS

CITY           SKY/WX    TMP DP  RH WIND       PRES   REMARKS
ALTON          CLEAR     55  52  90 W8        29.61S
BELLEVILLE     CLEAR     56  52  86 NW7       29.61S
CAHOKIA*       CLEAR     58  50  75 NW8       29.62R
SPARTA*        CLEAR     56  50  79 W5        29.61S
$$

ILZ064>066-069>071-074>076-080>082-084>086-088>090-092>094-250600-
SOUTH-CENTRAL ILLINOIS

CITY           SKY/WX    TMP DP  RH WIND       PRES   REMARKS
CARBONDALE     MOCLDY    58  50  75 W6        29.59S
CAIRO*         PTCLDY    58  50  75 W10       29.61S
EFFINGHAM*     CLOUDY    59  58  95 W9        29.56S
MARION         CLOUDY    61  52  72 CALM      29.59S
MT. VERNON       N/A     57  56  96 W3        29.57S
CENTRALIA*     MOCLDY    59  56  88 NW7       29.57S
SALEM*         CLOUDY    60  55  84 NW9       29.57S
METROPOLIS*    CLOUDY    58  52  82 CALM      29.60S
$$

ILZ067-068-072-073-078-083-087-091-250600-
SOUTHEAST ILLINOIS

CITY           SKY/WX    TMP DP  RH WIND       PRES   REMARKS
LAWRENCEVILLE  LGT RAIN  59  57  93 NW8       29.52R FOG
FLORA*         CLOUDY    60  57  89 NW12      29.55S
FAIRFIELD*     CLOUDY    57  57  98 CALM      29.54S
HARRISBURG*    CLOUDY    58  55  89 W7        29.57S
ROBINSON*      CLOUDY    57  56  96 W8        29.52S
CARMI*         DRIZZLE   57  56  95 W10       29.54S
$$

ABBREVIATIONS USED IN REMARKS
   TC - TEMPERATURE IN CELSIUS
  WCI - WIND CHILL INDEX
   HX - HEAT INDEX
  VSB - VISIBILITY
$$





USA.gov is the U.S. government's official web portal to all federal, state and local government web resources and services.